Tracking 28335 objects as of 4-Dec-2023
HD Live streaming from Space Station
objects crossing your sky now

STARLINK-3754

Track STARLINK-3754 now!
10-day predictions
STARLINK-3754 is classified as:


NORAD ID: 52350
Int'l Code: 2022-045V
Perigee: 545.5 km
Apogee: 548.2 km
Inclination: 53.2 °
Period: 95.4 minutes
Semi major axis: 6917 km
RCS: Unknown
Launch date: April 29, 2022
Source: United States (US)
Launch site: AIR FORCE EASTERN TEST RANGE (AFETR)
Your satellite tracking list
Your tracking list is empty




NASA's NSSDC Master Catalog

Two Line Element Set (TLE):
1 52350U 22045V   23338.15267342 -.00002389  00000-0 -13201-3 0  9991
2 52350  53.2172 309.5975 0001963  89.5858 270.5359 15.08839835 91008
Source of the keplerian elements: AFSPC